Zurück zum Katalog

FENGYUN 1C DEB

AktivLEO
NORAD 31286·DEBRIS·🇨🇳 China

Gestartet May 10, 1999 von Taiyuan Satellite Launch Center

Loading…

Nächste Überflüge (nächste 24 Stunden)

TLE

AktuellSource: Space-Track

Epoche: Sep 14, 2026, 02:33 UTC

1 31286U 99025BNU 26257.10684305  .00003893  00000-0  16151-2 0  9993
2 31286 100.8576 217.0964 0074769 257.0853 102.1960 14.25810043679404

Verfolge FENGYUN 1C DEB in Echtzeit mit AllMySat

Download on the App Store